Regional Weather Roundup
Issued by NWS

Home | Current Version | Previous Version | Text Only | Print | Product List | Glossary On
Versions: 1 2 3 4 5 6 7 8 9 10 11 12 13 14 15 16 17 18 19 20 21 22 23 24 25 26 27 28 29 30 31 32 33 34 35 36 37 38 39 40 41 42 43 44 45 46 47 48 49 50
000
ASUS45 KSLC 221110
RWRUT

UTAH REGIONAL WEATHER ROUNDUP
NATIONAL WEATHER SERVICE SALT LAKE CITY UT
400 AM MST WED FEB 22 2017

UTZ001>011-023>025-221200-

NORTHERN UTAH

CITY           SKY/WX    TMP DP  RH WIND       PRES   REMARKS
BRIGHAM CITY     N/A     35  33  91 CALM      30.05S
HILL AFB       MIX PCPN  32  32 100 S6        30.03S VSB 3/4 WCI  26
LOGAN          MOCLDY    36  33  89 CALM      30.02F
OGDEN          CLOUDY    34  33  96 SE8       30.03F WCI  27
SALT LAKE CITY CLOUDY    36  34  92 S5        30.04F WCI  32
TOOELE VALLEY  CLOUDY    34  32  93 SW3       30.05F
WENDOVER       MOCLDY    37  25  60 CALM      30.03F
HEBER CITY     LGT SNOW  30  30 100 CALM      30.01R
WEST JORDAN    CLOUDY    36  36 100 CALM      30.05S

$$

UTZ011>015-024>027-221200-

CENTRAL/NORTHEAST UTAH

CITY           SKY/WX    TMP DP  RH WIND       PRES   REMARKS
PROVO AIRPORT  LGT SNOW  32  31  96 SE3       30.06F FOG
MOAB/CANYONLAN CLEAR     45  34  65 SW13      29.95F
DELTA          CLOUDY    32  32 100 N8        30.03R WCI  25
PRICE          MOCLDY    36  29  75 NE7       29.95F WCI  30
RICHFIELD      MOCLDY    46  30  53 SW13      30.00F
ROOSEVELT      CLOUDY    37  30  75 W9        29.96F WCI  31
VERNAL         CLOUDY    39  32  76 E7        29.93F WCI  34

$$

UTZ013>016-019>022-027-221200-

SOUTHERN UTAH

CITY           SKY/WX    TMP DP  RH WIND       PRES   REMARKS
BRYCE CANYON   MOCLDY    34  26  72 S14       30.07F WCI  25
CEDAR CITY     PTCLDY    43  33  68 SW14G22   29.99F
MILFORD        CLOUDY    42  37  82 S10       30.01F
ST GEORGE      CLOUDY    53  44  71 SE14      30.01F
HANKSVILLE     PTCLDY    52  32  46 SW9       29.99F
KANAB          CLEAR     45  39  81 SW5       30.10F
BLANDING       MOCLDY    42  37  81 SE3       30.15F

$$

REGIONAL REPORTS     COLORADO/ARIZONA

CITY           SKY/WX    TMP DP  RH WIND       PRES   REMARKS
CRAIG, CO      FLURRIES  33  25  72 W3        30.00S
GRAND JUNCTION CLEAR     43  34  70 CALM      29.96F
RIFLE, CO      CLOUDY    43  31  62 NE7       29.95S
MONTROSE, CO   CLOUDY    45  26  47 N10       30.04F
CORTEZ, CO     CLOUDY    36  33  89 NE7       30.12F WCI  30
COLORADO CITY    N/A     37  36  93 CALM      30.10F
PAGE, AZ       MOCLDY    47  35  63 CALM      30.03F
GRAND CANYON   CLOUDY    42  41  96 S9        30.17
KINGMAN, AZ    MOCLDY    51  36  56 SE6       30.08F
FLAGSTAFF, AZ  MOCLDY    39  38  96 SW5       30.19F

$$

REGIONAL REPORTS    NEVADA/IDAHO/WYOMING

CITY           SKY/WX    TMP DP  RH WIND       PRES   REMARKS
LAS VEGAS, NV  MOCLDY    57  35  43 S14G25    29.95F
ELY, NY        LGT SNOW  29  29 100 NW6       30.01F FOG     WCI  23
ELKO, NV       CLOUDY    31  27  85 CALM      30.02F
POCATELLO, ID  CLOUDY    34  26  72 SW12      30.02R WCI  25
BURLEY, ID     MOCLDY    36  24  62 W5        30.01F WCI  32
EVANSTON, WY   LGT SNOW  24  21  88 N8        29.98F FOG     WCI  15
ROCK SPRINGS,  CLOUDY    27  25  92 W10       29.97F WCI  17

$$



USA.gov is the U.S. government's official web portal to all federal, state and local government web resources and services.